Location: Newark
(51.3318°N, 0.0053°E)
Time: 10:22:05
(UTC+00:00)

Sep Motor Cover - Pass Details

Date: 10 December 2022
Orbit: 663 x 834 km, 71.0° (Epoch: 05 February)

Event Time Altitude Azimuth Distance (km) Brightness Sun altitude
Rises 16:48:15 0° 284° (WNW) 3,174 10.6 -8.3°
Reaches altitude 10° 16:52:10 10° 314° (NW) 2,298 9.2 -8.9°
Maximum altitude 16:54:17 12° 338° (NNW) 2,163 8.8 -9.1°
Drops below altitude 10° 16:56:27 10° 2° (N) 2,347 8.8 -9.5°
Enters shadow 16:59:07 - 24° (NNE) 2,915 9.1 -9.8°
